Content
SEND FEEDBACK

Daily
Averages
Monthly
Summary
Mexico

CANCUN, QUINTANA ROO


Home > North America > Mexico > Quintana Roo
Elevation: 9 meters     Latitude: 21 09N     Longitude: 086 49W

WEATHER
 
SELECT A DAY
Number of Records: 163,700;   Date Range: 1/1/95 - 7/27/14
 
SHARE

PRINT THIS DATA

[ ← Previous Day ]
WEATHER ALMANAC - 4 FEBRUARY, 2013
[ Next Day → ]
[ °F ]   °C
Weather ElementAverageHighLow
Temperature21.1 °C26 °C (12:47 pm)16 °C (2:45 am)
Dewpoint16.5 °C19 °C (5:47 pm)14 °C (1:40 am)
Humidity77.2 %100 % (8:45 pm)54 % (11:45 am)
Barometer1016.3 hPa1018.6 hPa (9:44 am)1014.2 hPa (3:45 pm)
Wind Speed9 km/h18.5 km/h (1:41 pm)
Weather ElementAverage
Visibility11.3 km
Wind DirectionSSE (155.9 °)

Weather ElementTotal
Precipitation---
Cooling Degree Days2.7 (Base 18.3)
Growing Degree Days11 (Base 10)
Averaged from 22 records on 4 February, 2013
WEATHER CONDITIONS BREAKOUT
WIND DIRECTION BREAKOUT
WEATHER BY HOUR - 4 FEBRUARY, 2013
[ °F ]   °C
Local TimeTemperatureDewpointHumidityBarometerVisibilityWind DirectionWind SpeedGust SpeedPrecipitationEventsConditions
1:40 AM17 °C14 °C82 %1017.6 hPa11.3 kmNNW (330°)7.4 km/hPartly Cloudy
2:45 AM16 °C14 °C88 %1016.6 hPa11.3 kmNNW (340°)5.6 km/hPartly Cloudy
4:40 AM16 °C14 °C88 %1016.9 hPa11.3 kmNNW (330°)9.3 km/hPartly Cloudy
5:48 AM16 °C14 °C88 %1016.9 hPa11.3 kmNNW (330°)7.4 km/hScattered Clouds
6:49 AM16 °C14 °C88 %1017.6 hPa11.3 kmNNW (330°)9.3 km/hScattered Clouds
7:52 AM19 °C16 °C83 %1018.3 hPa11.3 kmNW (320°)7.4 km/hScattered Clouds
8:50 AM23 °C17 °C69 %1015.2 hPa11.3 kmNorth (360°)5.6 km/hScattered Clouds
9:44 AM25 °C16 °C57 %1018.6 hPa11.3 kmENE (60°)11.1 km/hScattered Clouds
10:44 AM25 °C16 °C57 %1017.9 hPa11.3 kmENE (70°)11.1 km/hScattered Clouds
11:45 AM25 °C15 °C54 %1017.3 hPa11.3 kmESE (110°)5.6 km/hScattered Clouds
12:47 PM26 °C16 °C54 %1016.3 hPa11.3 kmEast (90°)16.7 km/hScattered Clouds
1:41 PM25 °C15 °C54 %1015.2 hPa11.3 kmEast (100°)18.5 km/hScattered Clouds
2:45 PM25 °C16 °C57 %1014.9 hPa11.3 kmSE (140°)16.7 km/hScattered Clouds
3:45 PM25 °C17 °C61 %1014.2 hPa11.3 kmEast (90°)11.1 km/hClear
4:46 PM24 °C18 °C69 %1014.6 hPa11.3 kmESE (120°)14.8 km/hClear
5:47 PM23 °C19 °C78 %1014.2 hPa11.3 kmEast (100°)7.4 km/hClear
6:41 PM22 °C19 °C83 %1014.9 hPa11.3 kmNE (40°)5.6 km/hClear
7:45 PM20 °C18 °C88 %1015.2 hPa11.3 kmEast (80°)7.4 km/hClear
8:45 PM19 °C19 °C100 %1016.3 hPa11.3 kmCalmClear
9:48 PM19 °C19 °C100 %1016.3 hPa11.3 kmNE (50°)9.3 km/hClear
10:47 PM19 °C19 °C100 %1016.3 hPa11.3 kmNE (40°)9.3 km/hClear
11:46 PM18 °C18 °C100 %1015.2 hPa11.3 kmCalmClear
Hourly data recorded from MMUN, located 0 kilometers away from Cancun, Quintana Roo







STORIES FROM OUR PARTNERS